EST,Max TemperatureF,Mean TemperatureF,Min TemperatureF,Max Dew PointF,MeanDew PointF,Min DewpointF,Max Humidity, Mean Humidity, Min Humidity, Max Sea Level PressureIn, Mean Sea Level PressureIn, Min Sea Level PressureIn, Max VisibilityMiles, Mean VisibilityMiles, Min VisibilityMiles, Max Wind SpeedMPH, Mean Wind SpeedMPH, Max Gust SpeedMPH,PrecipitationIn, CloudCover, Events, WindDirDegrees
2013-12-1,50,44,39,47,42,32,100,90,65,30.37,30.13,30.01,10,4,0,17,10,17,0.07,8,Fog-Rain,357
2013-12-2,46,40,33,40,37,32,100,93,73,30.00,29.96,29.90,7,4,0,8,4,,0.00,6,Fog,5
2013-12-3,53,43,33,36,34,29,100,84,43,29.98,29.90,29.85,8,5,0,12,7,,0.00,4,Fog,348
2013-12-4,46,37,28,35,31,26,96,80,61,30.18,30.11,30.00,8,6,4,10,2,,0.00,2,,271
2013-12-5,55,46,36,55,50,34,100,93,85,30.17,30.06,29.96,7,4,0,14,6,,0.00,8,Fog-Rain,130
2013-12-6,57,48,39,56,46,37,100,92,82,30.11,29.99,29.90,10,4,0,15,7,25,0.29,8,Fog-Rain,314
2013-12-7,42,36,30,36,30,19,93,76,51,30.49,30.22,30.07,10,8,3,17,9,30,0.16,5,Rain,338
2013-12-8,33,30,26,23,18,15,75,60,48,30.61,30.53,30.45,10,10,4,10,7,,0.00,4,,14
2013-12-9,42,35,28,40,33,25,100,92,85,30.41,30.12,29.91,10,4,1,16,12,24,0.08,7,Rain,16
2013-12-10,36,32,28,34,31,22,100,90,78,30.07,29.91,29.81,9,4,0,14,3,21,0.06,5,Fog-Rain-Snow,291
2013-12-11,33,30,27,21,18,15,69,60,52,30.28,30.20,30.09,10,9,8,15,11,23,0.00,1,,280
2013-12-12,28,24,19,16,9,5,68,54,43,30.31,30.23,30.12,10,10,9,16,9,23,0.00,1,,318
2013-12-13,33,27,21,16,12,6,66,52,46,30.35,30.16,30.08,10,10,9,16,12,28,0.00,3,,285
2013-12-14,36,26,17,34,16,7,93,78,48,30.56,30.37,29.98,10,3,0,21,12,32,0.03,8,Fog-Rain-Snow,44
2013-12-15,39,34,30,37,32,21,100,87,61,29.90,29.57,29.41,10,7,2,26,16,39,0.51,6,Rain,321
2013-12-16,33,27,21,22,13,8,65,53,38,30.23,30.02,29.79,10,10,9,15,11,23,0.00,1,,291
2013-12-17,26,21,16,22,16,8,88,80,62,30.26,30.08,29.90,10,5,0,17,9,25,0.06,7,Fog-Snow,31
2013-12-18,36,30,23,21,19,17,85,67,52,30.14,29.99,29.86,10,9,8,20,11,34,0.00,1,,310
2013-12-19,45,38,30,34,27,19,82,66,53,30.16,30.10,30.01,9,8,7,20,8,28,0.00,1,,257
2013-12-20,48,39,30,42,36,28,93,83,71,30.12,30.05,29.98,9,8,6,9,2,,0.00,1,,233
2013-12-21,53,49,45,51,46,44,100,89,80,30.02,29.97,29.92,7,6,5,12,5,17,0.00,2,,222
2013-12-22,62,56,51,55,53,50,100,94,72,29.99,29.91,29.85,10,4,0,23,10,30,0.00,7,Fog-Rain,229
2013-12-23,54,48,41,52,45,35,100,93,79,30.08,30.00,29.91,10,6,1,17,5,25,0.56,8,Rain,34
2013-12-24,39,34,28,29,20,13,69,55,41,30.26,30.12,30.04,10,10,10,20,13,29,0.00,4,,341
2013-12-25,27,23,19,13,6,3,62,48,36,30.54,30.45,30.28,10,10,10,22,12,29,0.00,1,,356
2013-12-26,37,30,24,32,22,14,87,71,63,30.45,30.28,30.11,10,9,3,13,6,,0.00,6,Rain-Snow,334
2013-12-27,39,30,21,23,21,18,92,67,43,30.32,30.28,30.24,10,8,5,13,6,,0.00,1,,288
2013-12-28,50,38,25,37,29,21,92,69,39,30.27,30.14,30.05,10,9,7,16,6,22,0.00,1,,245
2013-12-29,48,41,34,47,40,32,100,89,71,30.05,29.68,29.34,10,5,2,24,8,34,0.81,6,Rain,44
2013-12-30,45,33,19,37,25,6,93,70,46,30.17,29.92,29.63,10,10,8,16,9,24,0.00,2,,308
2013-12-31,28,22,15,18,11,4,70,59,43,30.23,30.14,30.06,10,10,9,13,8,,0.00,1,,302